When you browse on this site, cookies collect data to enhance your experience and personalize the content and advertising you see.
Visit our Privacy Policy to learn more. By continuing to use the site, you agree to this use of cookies and data.
  • In France
  • List of Countries
  • For 7 days
  • Water Temperature
  • Satellite Maps
  • Weather Map
  • Weather Widgets
  • user-avatar
    Login

    Hourly Weather Hrazdan

    Today, 19 January, Saturday

    Time Temperature Precipitation Wind Pressure Humidity
    00:00 -11°C° 0 mm 1 mps 608 mmHg 74%
    01:00 -13°C° 0 mm 2 mps 608 mmHg 74%
    02:00 -13°C° 0 mm 2 mps 608 mmHg 73%
    03:00 -13°C° 0 mm 2 mps 608 mmHg 72%
    04:00 -13°C° 0 mm 2 mps 608 mmHg 72%
    05:00 -13°C° 0 mm 2 mps 608 mmHg 71%
    06:00 -13°C° 0 mm 2 mps 608 mmHg 71%
    07:00 -12°C° 0 mm 2 mps 608 mmHg 71%
    08:00 -10°C° 0 mm 2 mps 608 mmHg 71%
    09:00 -9°C° 0 mm 2 mps 609 mmHg 71%
    10:00 -8°C° 0 mm 2 mps 609 mmHg 71%
    11:00 -6°C° 0 mm 2 mps 609 mmHg 71%
    12:00 -6°C° 0 mm 3 mps 609 mmHg 71%
    13:00 -5°C° 0 mm 2 mps 609 mmHg 72%
    14:00 -5°C° 0 mm 2 mps 609 mmHg 73%
    15:00 -5°C° 0 mm 2 mps 609 mmHg 74%
    16:00 -7°C° 0 mm 2 mps 608 mmHg 70%
    17:00 -9°C° 0 mm 2 mps 608 mmHg 66%
    18:00 -12°C° 0 mm 2 mps 608 mmHg 61%
    19:00 -12°C° 0 mm 2 mps 608 mmHg 59%
    20:00 -12°C° 0 mm 2 mps 608 mmHg 57%
    21:00 -12°C° 0 mm 2 mps 608 mmHg 55%
    22:00 -12°C° 0 mm 2 mps 608 mmHg 56%
    23:00 -12°C° 0 mm 2 mps 608 mmHg 58%

    Tomorrow, 20 January, Sunday

    Time Temperature Precipitation Wind Pressure Humidity
    00:00 -12°C° 0 mm 2 mps 608 mmHg 59%
    01:00 -12°C° 0 mm 2 mps 609 mmHg 60%
    02:00 -12°C° 0 mm 2 mps 609 mmHg 61%
    03:00 -12°C° 0 mm 2 mps 609 mmHg 61%
    04:00 -12°C° 0 mm 2 mps 609 mmHg 61%
    05:00 -12°C° 0 mm 2 mps 609 mmHg 61%
    06:00 -12°C° 0 mm 2 mps 609 mmHg 61%
    07:00 -10°C° 0 mm 2 mps 610 mmHg 63%
    08:00 -10°C° 0 mm 2 mps 610 mmHg 65%
    09:00 -9°C° 0 mm 2 mps 611 mmHg 66%
    10:00 -7°C° 0 mm 2 mps 611 mmHg 66%
    11:00 -6°C° 0 mm 2 mps 611 mmHg 66%
    12:00 -5°C° 0 mm 2 mps 611 mmHg 66%
    13:00 -5°C° 0 mm 2 mps 611 mmHg 68%
    14:00 -3°C° 0 mm 1 mps 611 mmHg 70%
    15:00 -3°C° 0 mm 1 mps 611 mmHg 72%
    16:00 -4°C° 0 mm 1 mps 610 mmHg 70%
    17:00 -7°C° 0 mm 1 mps 610 mmHg 68%
    18:00 -8°C° 0 mm 1 mps 610 mmHg 66%
    19:00 -9°C° 0 mm 1 mps 610 mmHg 63%
    20:00 -9°C° 0 mm 1 mps 610 mmHg 60%
    21:00 -10°C° 0 mm 1 mps 610 mmHg 57%
    22:00 -10°C° 0 mm 1 mps 610 mmHg 56%
    23:00 -12°C° 0 mm 2 mps 610 mmHg 55%

    Day after tomorrow, 21 January, Monday

    Time Temperature Precipitation Wind Pressure Humidity
    00:00 -12°C° 0 mm 2 mps 610 mmHg 54%
    01:00 -13°C° 0 mm 2 mps 610 mmHg 54%
    02:00 -13°C° 0 mm 2 mps 610 mmHg 55%
    03:00 -13°C° 0 mm 2 mps 610 mmHg 56%
    04:00 -13°C° 0 mm 2 mps 610 mmHg 57%
    05:00 -13°C° 0 mm 2 mps 610 mmHg 59%
    06:00 -13°C° 0 mm 2 mps 610 mmHg 60%
    07:00 -12°C° 0 mm 2 mps 610 mmHg 62%
    08:00 -10°C° 0 mm 2 mps 610 mmHg 64%
    09:00 -10°C° 0 mm 2 mps 611 mmHg 66%
    10:00 -8°C° 0 mm 2 mps 611 mmHg 66%
    11:00 -7°C° 0 mm 2 mps 611 mmHg 66%
    12:00 -5°C° 0 mm 2 mps 611 mmHg 66%
    13:00 -5°C° 0 mm 2 mps 610 mmHg 67%
    14:00 -5°C° 0 mm 2 mps 610 mmHg 68%
    15:00 -5°C° 0 mm 2 mps 610 mmHg 69%
    16:00 -7°C° 0 mm 2 mps 609 mmHg 67%
    17:00 -9°C° 0 mm 2 mps 609 mmHg 64%
    18:00 -12°C° 0 mm 2 mps 608 mmHg 61%
    19:00 -12°C° 0 mm 2 mps 608 mmHg 59%
    20:00 -12°C° 0 mm 2 mps 608 mmHg 58%
    21:00 -12°C° 0 mm 2 mps 608 mmHg 56%
    22:00 -12°C° 0 mm 2 mps 608 mmHg 58%
    23:00 -12°C° 0 mm 2 mps 608 mmHg 60%

    22 January, Tuesday

    Time Temperature Precipitation Wind Pressure Humidity
    00:00 -12°C° 0 mm 2 mps 608 mmHg 61%
    01:00 -12°C° 0 mm 2 mps 608 mmHg 63%
    02:00 -13°C° 0 mm 2 mps 608 mmHg 64%
    03:00 -13°C° 0 mm 2 mps 608 mmHg 65%
    04:00 -13°C° 0 mm 2 mps 607 mmHg 65%
    05:00 -13°C° 0 mm 2 mps 607 mmHg 65%
    06:00 -13°C° 0 mm 2 mps 607 mmHg 65%
    07:00 -12°C° 0 mm 2 mps 607 mmHg 66%
    08:00 -10°C° 0 mm 2 mps 608 mmHg 67%
    09:00 -9°C° 0 mm 2 mps 608 mmHg 68%
    10:00 -8°C° 0 mm 2 mps 608 mmHg 68%
    11:00 -7°C° 0 mm 3 mps 608 mmHg 69%
    12:00 -6°C° 0 mm 3 mps 609 mmHg 69%
    13:00 -6°C° 0 mm 3 mps 608 mmHg 70%
    14:00 -5°C° 0 mm 2 mps 608 mmHg 71%
    15:00 -5°C° 0 mm 2 mps 608 mmHg 72%
    16:00 -6°C° 0 mm 2 mps 607 mmHg 70%
    17:00 -8°C° 0 mm 2 mps 607 mmHg 68%
    18:00 -9°C° 0 mm 2 mps 607 mmHg 66%
    19:00 -10°C° 0 mm 2 mps 607 mmHg 64%
    20:00 -10°C° 0 mm 2 mps 607 mmHg 63%
    21:00 -10°C° 0 mm 2 mps 607 mmHg 61%
    22:00 -10°C° 0 mm 2 mps 607 mmHg 62%
    23:00 -12°C° 0 mm 2 mps 607 mmHg 64%

    23 January, Wednesday

    Time Temperature Precipitation Wind Pressure Humidity
    00:00 -12°C° 0 mm 2 mps 607 mmHg 65%
    01:00 -12°C° 0 mm 2 mps 607 mmHg 66%
    02:00 -12°C° 0 mm 2 mps 607 mmHg 67%
    03:00 -12°C° 0 mm 2 mps 607 mmHg 68%
    04:00 -12°C° 0 mm 2 mps 607 mmHg 69%
    05:00 -12°C° 0 mm 2 mps 607 mmHg 69%
    06:00 -12°C° 0 mm 2 mps 607 mmHg 69%
    07:00 -10°C° 0 mm 2 mps 607 mmHg 70%
    08:00 -10°C° 0 mm 2 mps 608 mmHg 71%
    09:00 -9°C° 0 mm 2 mps 608 mmHg 72%
    10:00 -9°C° 0 mm 3 mps 609 mmHg 73%
    11:00 -7°C° 0 mm 3 mps 609 mmHg 73%
    12:00 -6°C° 0 mm 3 mps 609 mmHg 74%
    13:00 -6°C° 0 mm 3 mps 609 mmHg 75%
    14:00 -6°C° 0 mm 3 mps 609 mmHg 76%
    15:00 -6°C° 0 mm 3 mps 608 mmHg 77%
    16:00 -7°C° 0 mm 3 mps 608 mmHg 76%
    17:00 -8°C° 0 mm 2 mps 608 mmHg 76%
    18:00 -9°C° 0 mm 2 mps 608 mmHg 75%
    19:00 -9°C° 0 mm 2 mps 608 mmHg 75%
    20:00 -9°C° 0 mm 2 mps 608 mmHg 74%
    21:00 -9°C° 0 mm 2 mps 608 mmHg 74%
    22:00 -10°C° 0 mm 2 mps 608 mmHg 75%
    23:00 -10°C° 0 mm 2 mps 609 mmHg 76%

    24 January, Thursday

    Time Temperature Precipitation Wind Pressure Humidity
    00:00 -10°C° 0 mm 2 mps 609 mmHg 78%
    01:00 -10°C° 0 mm 2 mps 609 mmHg 79%
    02:00 -12°C° 0 mm 3 mps 609 mmHg 79%
    03:00 -12°C° 0 mm 3 mps 608 mmHg 80%
    04:00 -12°C° 0 mm 3 mps 608 mmHg 80%
    05:00 -12°C° 0 mm 3 mps 608 mmHg 80%
    06:00 -12°C° 0 mm 3 mps 608 mmHg 80%
    07:00 -10°C° 0 mm 3 mps 608 mmHg 79%
    08:00 -9°C° 0 mm 3 mps 609 mmHg 79%
    09:00 -9°C° 0 mm 3 mps 609 mmHg 79%
    10:00 -7°C° 0 mm 3 mps 609 mmHg 78%
    11:00 -6°C° 0 mm 3 mps 609 mmHg 77%
    12:00 -5°C° 0 mm 4 mps 609 mmHg 76%
    13:00 -5°C° 0 mm 3 mps 609 mmHg 76%
    14:00 -4°C° 0 mm 3 mps 609 mmHg 76%
    15:00 -4°C° 0 mm 3 mps 608 mmHg 76%
    16:00 -6°C° 0 mm 3 mps 608 mmHg 76%
    17:00 -7°C° 0 mm 3 mps 607 mmHg 76%
    18:00 -8°C° 0 mm 3 mps 607 mmHg 77%
    19:00 -8°C° 0 mm 3 mps 607 mmHg 77%
    20:00 -8°C° 0 mm 3 mps 607 mmHg 78%
    21:00 -8°C° 0 mm 3 mps 608 mmHg 79%
    22:00 -8°C° 0 mm 3 mps 608 mmHg 80%
    23:00 -7°C° 0 mm 3 mps 608 mmHg 81%
    Show more